Simultaneous Nadir Overpasses (SNOs) Predictions

Prediction of SNOs between GOES-17 and NOAA-20 Satellite Orbit:

Table of predicted SNOs for the next 14.0 days since TLE Epoch: 8/10/2024
Index Date Time (GOES-17) GOES-17 Lat,Lon NOAA-20 Lat,Lon Distance(km) Time Diff (sec)
1 08/11/2024 08:32:21 -0.02,-104.70 0.40,-106.64 220.50 80
2 08/12/2024 08:10:55 -0.02,-104.70 -0.59,-102.11 295.84 80
3 08/13/2024 20:32:52 0.02,-104.71 -0.57,-107.42 308.09 80
4 08/14/2024 20:16:46 0.02,-104.71 0.42,-102.88 208.26 80
5 08/16/2024 08:38:33 -0.03,-104.70 0.76,-108.15 393.51 80
6 08/17/2024 08:17:07 -0.03,-104.70 -0.25,-103.62 122.52 80
7 08/18/2024 20:39:03 0.04,-104.70 -0.89,-108.93 482.05 80
8 08/19/2024 20:22:58 0.04,-104.70 0.12,-104.40 34.44 80
9 08/22/2024 08:25:59 -0.04,-104.69 0.03,-105.14 50.22 80
10 08/23/2024 08:04:32 -0.04,-104.69 -0.93,-100.59 466.35 80
